MAS1205 WMKK-WMKL

Flight info

Callsign MAS1205
Flight time N/A
Altitude 30000
Route ATIMU1D ATIMU Y506 VPG W525 KAPKO KAPKO1E
Aircraft B738/M-SDE2E3FGHIRWXY/LB1

Departure

Time 2026-05-06 11:44
Airport Kuala Lumpur International Airport (WMKK)

Arrival

Time N/A
Airport Langkawi International Airport (WMKL)
Time Latitude Longitude Altitude Speed Heading
2026-05-06 11:33 2.75128 101.70446 74 ft 0 kts 326°
2026-05-06 11:34 2.75120 101.70451 74 ft 2 kts 326°
2026-05-06 11:34 2.75107 101.70458 74 ft 2 kts 339°
2026-05-06 11:34 2.75093 101.70463 74 ft 2 kts 350°
2026-05-06 11:34 2.75078 101.70464 74 ft 2 kts
2026-05-06 11:35 2.75063 101.70462 74 ft 2 kts 15°
2026-05-06 11:35 2.75049 101.70457 74 ft 2 kts 27°
2026-05-06 11:35 2.75041 101.70452 74 ft 2 kts 36°
2026-05-06 11:35 2.75026 101.70438 74 ft 1 kts 52°
2026-05-06 11:36 2.75022 101.70433 74 ft 1 kts 57°
2026-05-06 11:36 2.75021 101.70431 74 ft 0 kts 56°
2026-05-06 11:38 2.75035 101.70454 74 ft 9 kts 59°
2026-05-06 11:39 2.75066 101.70538 74 ft 16 kts 103°
2026-05-06 11:39 2.74980 101.70628 74 ft 18 kts 116°
2026-05-06 11:39 2.75027 101.70753 74 ft 23 kts 56°
2026-05-06 11:39 2.75126 101.70898 74 ft 27 kts 55°
2026-05-06 11:40 2.75243 101.71071 74 ft 32 kts 56°
2026-05-06 11:40 2.75368 101.71255 74 ft 24 kts 56°
2026-05-06 11:40 2.75458 101.71395 74 ft 23 kts 76°
2026-05-06 11:40 2.75370 101.71506 74 ft 22 kts 147°
2026-05-06 11:41 2.75230 101.71600 74 ft 25 kts 145°
2026-05-06 11:41 2.75078 101.71702 74 ft 22 kts 147°
2026-05-06 11:41 2.74974 101.71770 74 ft 16 kts 145°
2026-05-06 11:41 2.74962 101.71860 74 ft 14 kts 58°
2026-05-06 11:42 2.74995 101.71912 74 ft 0 kts 55°
2026-05-06 11:42 2.75006 101.71927 74 ft 6 kts 55°
2026-05-06 11:42 2.75045 101.71985 74 ft 13 kts 56°
2026-05-06 11:43 2.75117 101.72019 74 ft 10 kts 335°
2026-05-06 11:43 2.75141 101.72006 74 ft 0 kts 327°
2026-05-06 11:43 2.75237 101.71942 74 ft 50 kts 326°
2026-05-06 11:44 2.76654 101.70995 94 ft 183 kts 326°
2026-05-06 11:44 2.77769 101.70258 633 ft 199 kts 328°
2026-05-06 11:44 2.78927 101.69541 1598 ft 194 kts 329°
2026-05-06 11:44 2.80034 101.68814 2257 ft 199 kts 331°
2026-05-06 11:45 2.81379 101.68259 2687 ft 216 kts 345°
2026-05-06 11:45 2.82863 101.67822 3192 ft 232 kts 344°
2026-05-06 11:45 2.84464 101.67305 3710 ft 248 kts 342°
2026-05-06 11:45 2.86136 101.66715 4262 ft 263 kts 340°
2026-05-06 11:46 2.87778 101.65815 4907 ft 275 kts 323°
2026-05-06 11:46 2.89215 101.64550 5674 ft 280 kts 317°
2026-05-06 11:46 2.90644 101.63188 6475 ft 283 kts 318°
2026-05-06 11:46 2.92103 101.61852 7224 ft 287 kts 320°
2026-05-06 11:47 2.93603 101.60546 7988 ft 291 kts 320°
2026-05-06 11:47 2.95167 101.59217 8716 ft 295 kts 321°
2026-05-06 11:47 2.96726 101.57903 9435 ft 298 kts 321°
2026-05-06 11:47 2.98323 101.56557 10128 ft 303 kts 321°
2026-05-06 11:48 2.99977 101.55160 10548 ft 317 kts 321°
2026-05-06 11:48 3.01690 101.53713 11103 ft 326 kts 321°
2026-05-06 11:48 3.03430 101.52238 11749 ft 331 kts 321°
2026-05-06 11:48 3.05193 101.50742 12378 ft 335 kts 321°
2026-05-06 11:49 3.06981 101.49224 13001 ft 339 kts 321°
2026-05-06 11:49 3.08784 101.47695 13670 ft 341 kts 321°
2026-05-06 11:49 3.10619 101.46139 14260 ft 345 kts 322°
2026-05-06 11:49 3.12440 101.44595 14844 ft 349 kts 322°
2026-05-06 11:50 3.14325 101.42996 15411 ft 353 kts 321°
2026-05-06 11:50 3.16192 101.41413 16005 ft 355 kts 321°
2026-05-06 11:50 3.18097 101.39799 16527 ft 360 kts 322°
2026-05-06 11:50 3.20016 101.38171 17085 ft 363 kts 322°
2026-05-06 11:51 3.21958 101.36524 17639 ft 366 kts 321°
2026-05-06 11:51 3.23905 101.34872 18201 ft 368 kts 322°
2026-05-06 11:51 3.25851 101.33221 18713 ft 371 kts 321°
2026-05-06 11:51 3.27833 101.31539 19230 ft 373 kts 321°
2026-05-06 11:52 3.29808 101.29865 19730 ft 376 kts 322°
2026-05-06 11:52 3.31815 101.28165 20192 ft 379 kts 322°
2026-05-06 11:52 3.33834 101.26453 20700 ft 380 kts 322°
2026-05-06 11:52 3.35879 101.24719 21155 ft 383 kts 321°
2026-05-06 11:53 3.37920 101.22989 21572 ft 387 kts 321°
2026-05-06 11:53 3.39956 101.21261 22002 ft 389 kts 321°
2026-05-06 11:53 3.42036 101.19496 22424 ft 392 kts 321°
2026-05-06 11:53 3.44143 101.17708 22813 ft 395 kts 321°
2026-05-06 11:54 3.46244 101.15925 23274 ft 396 kts 321°
2026-05-06 11:54 3.48328 101.14156 23652 ft 399 kts 321°
2026-05-06 11:54 3.50492 101.12319 23817 ft 406 kts 321°
2026-05-06 11:54 3.52616 101.10516 23822 ft 403 kts 321°
2026-05-06 11:55 3.54758 101.08695 23820 ft 399 kts 321°
2026-05-06 11:55 3.56874 101.06895 23820 ft 400 kts 321°
2026-05-06 11:55 3.58999 101.05090 23817 ft 400 kts 321°
2026-05-06 11:55 3.61115 101.03294 23816 ft 400 kts 321°